Regional Weather Roundup
Issued by NWS Wilmington, NC

Home | Current Version | Previous Version | Text Only | Print | Product List | Glossary On
Versions: 1 2 3 4 5 6 7 8 9 10 11 12 13 14 15 16 17 18 19 20 21 22 23 24 25 26 27 28 29 30 31 32 33
000
ASUS42 KILM 310810
RWRILM
RWRILM
REGIONAL HOURLY WEATHER ROUNDUP
NATIONAL WEATHER SERVICE WILMINGTON NC
400 AM EDT FRI OCT 31 2014

NOTE: "FAIR" INDICATES FEW OR NO CLOUDS BELOW 12,000 FEET WITH NO
SIGNIFICANT WEATHER AND/OR OBSTRUCTIONS TO VISIBILITY.

...............WFO WILMINGTON COUNTY WARNING AREA...............

......COASTAL NC AND SC COUNTIES......

CITY           SKY/WX    TMP DP  RH WIND       PRES   REMARKS
WILMINGTON     MOCLDY    52  49  89 N9        29.91F
SOUTHPORT      MOCLDY    55  49  82 N6        29.89F
N MYRTLE BEACH CLOUDY    54  51  90 NE7       29.90F
MYRTLE BEACH   MOCLDY    55  48  76 N8        29.90S

......INLAND NC AND SC COUNTIES.......

CITY           SKY/WX    TMP DP  RH WIND       PRES   REMARKS
LUMBERTON      PTCLDY    50  46  86 CALM      29.93F
ELIZABETHTOWN  PTCLDY    49  48  97 CALM      29.93S
WHITEVILLE     PTCLDY    52  49  89 NE3       29.91F
FLORENCE       CLEAR     48  45  89 NE3       29.92F
DARLINGTON     CLEAR     45  39  81 N5        29.94F

....................REST OF NORTH CAROLINA......................

.........EASTERN NC.........

CITY           SKY/WX    TMP DP  RH WIND       PRES   REMARKS
CAPE HATTERAS  CLOUDY    60  51  72 NE9G23    29.88F
JACKSONVILLE   PTCLDY    48  45  87 N6        29.93F
MOREHEAD CITY  CLOUDY    58  50  75 NE13      29.89F
KENANSVILLE    PTCLDY    48  47  96 CALM      29.94F
NEW BERN       PTCLDY    54  48  80 NE7       29.94S
ELIZABETH CITY PTCLDY    53  45  74 N7        29.94F

.........CENTRAL NC.........

CITY           SKY/WX    TMP DP  RH WIND       PRES   REMARKS
RALEIGH DURHAM PTCLDY    45  40  82 NE7       29.98S
ROCKY MOUNT    CLEAR     45  43  93 N6        29.97F
ROANOKE RAPIDS NOT AVBL
FAYETTEVILLE   PTCLDY    47  45  93 N8        29.94S
HOFFMAN        NOT AVBL

.........WESTERN NC.........

CITY           SKY/WX    TMP DP  RH WIND       PRES   REMARKS
CHARLOTTE      CLEAR     42  36  79 N7        29.96S
GREENSBORO     CLEAR     43  38  82 NE7       29.98F
HICKORY        NOT AVBL
BOONE          NOT AVBL
ASHEVILLE      NOT AVBL

.....................REST OF SOUTH CAROLINA.....................

.........EASTERN SC.........

CITY           SKY/WX    TMP DP  RH WIND       PRES   REMARKS
CHARLESTON     PTCLDY    58  53  84 N6        29.89F
BEAUFORT MCAS    N/A    N/A N/A N/A MISG        N/A
HILTON HEAD    NOT AVBL

.........CENTRAL SC.........

CITY           SKY/WX    TMP DP  RH WIND       PRES   REMARKS
COLUMBIA       CLEAR     44  40  85 W3        29.92F
ORANGEBURG     MOCLDY    51  45  79 CALM      29.91F
SUMTER SHAW    MOCLDY    49  45  87 NE6       29.91S

.........WESTERN SC.........

CITY           SKY/WX    TMP DP  RH WIND       PRES   REMARKS
GREENVILLE     NOT AVBL
ROCK HILL      CLEAR     40  40 100 N5        29.95S
ANDERSON       CLEAR     43  40  89 NE7       29.93F
CLEMSON        NOT AVBL
GREENWOOD      CLEAR     41  39  93 CALM      29.95F


...................COASTAL AND OFFSHORE REPORTS..................

................LOCAL PIERS AND NC RESERVE................


STATION/POSITION TIME  SKY/WX   TEMP    WIND        PRES    VSBY
                                AIR SEA DIR/SP/G
                 (UTC)          (F)     (DEG/KT/KT) (MB)    (MI)
JOHNY MRCER PIER 0800            58 72   20/ 16/ 20 1011.7F
NC RESRV MASNBRO 0700            58      20/  5     1012.0S
OCEAN CREST PIER 0800            56 70  350/  7/  9 1011.3F
SPRINGMAID  PIER 0800            58 69   10/  8/ 12 1012.3F


................COASTAL AND OFFSHORE BUOYS................


STATION/POSITION TIME  SKY/WX   TEMP    WIND        PRES    VSBY
                                AIR SEA DIR/SP/G
                 (UTC)          (F)     (DEG/KT/KT) (MB)    (MI)
DIMNDSHOAL 41025 0800            64      10/ 21/ 27 1010.8F
WVE H/P(F/S)=  6/ 6 WND WVE H/P(F/S)=  5/ 6 SWL H/P/D(F/S/D)=  2/12

CAPE LOOKOUT     0700            61      20/ 15/ 18 1012.3F
ONSLOW BAY 41036 0800            64 74   30/ 21/ 25 1010.2F
WVE H/P(F/S)=  5/ 5 WND WVE H/P(F/S)=  5/ 5 SWL H/P/D(F/S/D)=  2/ 90/ 9

5 WRITEBCH 41038 0700            60 71   50/ 19/ 23   N/A
MASONBORO  41110 0800               71                N/A
WVE H/P(F/S)=  4/ 5 WND WVE H/P(F/S)=  3/ 5

WILM HARBR 41108 0800               71                N/A
WVE H/P(F/S)=  4/ 5 WND WVE H/P(F/S)=  3/ 5

27WRITEBCH 41037 0700            62 74   50/ 17/ 21 1011.7F
FRYING PAN 41013 0800            66 73   40/ 19/ 23 1011.0F
WVE H/P(F/S)=  5/ 6 WND WVE H/P(F/S)=  5/ 6

SUNST NRSH 41024 0700            59      30/ 10/ 12 1012.2F
CAPRS NRSH 41029 0700            65      40/ 16/ 19   N/A
EDISTO     41004 0800            70 77   20/ 16/ 17 1009.8F
WVE H/P(F/S)=  5/ 6 WND WVE H/P(F/S)=  5/ 6 SWL H/P/D(F/S/D)=  2/ 9



..........OFFSHORE BUOYS BEYOND 100 NM OFFSHORE...........
.....IN A TRIANGLE---HAT TO BERMUDA TO BAHAMAS TO HAT.....


STATION/POSITION TIME  SKY/WX   TEMP    WIND        PRES    VSBY
                                AIR SEA DIR/SP/G
                 (UTC)          (F)     (DEG/KT/KT) (MB)    (MI)
150E HAT   41001 NOT AVBL
W BERMUDA  41048 0715            75 78  100/  6/  8 1009.9
WVE H/P(F/S)=  5/ 8 WND WVE H/P(F/S)=  2/ 4 SWL H/P/D(F/S/D)=  5/140/ 8

ATLANTIC S 41049 0717            80 80  130/ 16/ 17 1010.6F
WVE H/P(F/S)=  6/ 8 WND WVE H/P(F/S)=  5/ 6 SWL H/P/D(F/S/D)=  5/110/ 8

E BAHAMAS  41046 0743            81 83  110/  4/  6 1009.0F
WVE H/P(F/S)=  5/ 9 WND WVE H/P(F/S)=  2/ 4 SWL H/P/D(F/S/D)=  5/130/ 9

NE BAHAMAS 41047 0722            80 81  160/ 14/ 16 1008.1F
WVE H/P(F/S)=  4/ 7 WND WVE H/P(F/S)=  2/ 6 SWL H/P/D(F/S/D)=  3/100/ 7

120E CANVRL41010 0800            79 82  300/ 10/ 14 1009.8R
WVE H/P(F/S)=  4/ 8 WND WVE H/P(F/S)=  2/ 4 SWL H/P/D(F/S/D)=  3/110/ 8


END



USA.gov is the U.S. government's official web portal to all federal, state and local government web resources and services.